This is the latest recevied weather packets stored in our database for station/object N6RDS-8. If no packets are shown the sender has not sent any weather packets the latest 10 day(s).
| Time | Temp. | Humidity | Pressure | Rain* | Wind** | Luminosity | Snow |
|---|---|---|---|---|---|---|---|
| 1778023799 | 23.89° C | 30% | 1013.6 hPa | 0 mm | - | 389 W/m² | - |
| 1778023497 | 24.44° C | 30% | 1013.6 hPa | 0 mm | - | 395 W/m² | - |
| 1778023194 | 24.44° C | 31% | 1013.7 hPa | 0 mm | - | 455 W/m² | - |
| 1778022892 | 23.89° C | 31% | 1013.7 hPa | 0 mm | - | 428 W/m² | - |
| 1778022590 | 25° C | 30% | 1013.6 hPa | 0 mm | - | 437 W/m² | - |
| 1778022287 | 24.44° C | 31% | 1013.5 hPa | 0 mm | - | 469 W/m² | - |
| 1778021983 | 23.33° C | 32% | 1013.6 hPa | 0 mm | - | 512 W/m² | - |
| 1778021681 | 23.89° C | 31% | 1013.6 hPa | 0 mm | - | 517 W/m² | - |
| 1778021377 | 23.33° C | 32% | 1013.7 hPa | 0 mm | - | 561 W/m² | - |
| 1778021073 | 23.89° C | 30% | 1013.8 hPa | 0 mm | - | 98 W/m² | - |
| 1778020770 | 23.89° C | 31% | 1013.8 hPa | 0 mm | - | 540 W/m² | - |
| 1778020468 | 23.89° C | 30% | 1013.8 hPa | 0 mm | - | 559 W/m² | - |
| 1778020164 | 24.44° C | 30% | 1013.8 hPa | 0 mm | - | 576 W/m² | - |
| 1778019860 | 24.44° C | 31% | 1013.8 hPa | 0 mm | - | 568 W/m² | - |
| 1778019556 | 23.89° C | 31% | 1013.9 hPa | 0 mm | - | 596 W/m² | - |
| 1778019254 | 23.89° C | 30% | 1013.8 hPa | 0 mm | - | 627 W/m² | - |
| 1778018950 | 23.89° C | 30% | 1014.1 hPa | 0 mm | - | 630 W/m² | - |
| 1778018647 | 23.89° C | 29% | 1014 hPa | 0 mm | - | 631 W/m² | - |
| 1778018345 | 23.89° C | 31% | 1014.1 hPa | 0 mm | - | 646 W/m² | - |
| 1778018043 | 23.89° C | 32% | 1014 hPa | 0 mm | - | 648 W/m² | - |
| 1778017740 | 23.89° C | 31% | 1014.1 hPa | 0 mm | - | 99 W/m² | - |
| 1778017438 | 23.89° C | 33% | 1014.2 hPa | 0 mm | - | 696 W/m² | - |
| 1778017135 | 23.89° C | 32% | 1014.3 hPa | 0 mm | - | 679 W/m² | - |
| 1778016833 | 24.44° C | 30% | 1014.3 hPa | 0 mm | - | 676 W/m² | - |
| 1778016528 | 23.89° C | 32% | 1014.3 hPa | 0 mm | - | 720 W/m² | - |
* Rain latest hour (hover to see other rain measurements)
** Current wind speed in m/s (hover to see current wind gust speed)